Location: Holmbach
(49.5093°N, 8.8411°E)
Time: 05:36:04
(UTC+00:00)

NOSS 3-4 (C) - Pass Details

Date: 17 June 2025
Orbit: 778 x 1433 km, 63.4° (Epoch: 09 July)

Event Time Altitude Azimuth Distance (km) Brightness Sun altitude
Rises 20:31:08 0° 237° (WSW) 3,268 6.4 -7.4°
Reaches altitude 10° 20:33:30 10° 242° (WSW) 2,369 5.7 -7.7°
Maximum altitude 20:38:48 56° 320° (NW) 1,004 4.1 -8.2°
Drops below altitude 10° 20:44:47 10° 39° (NE) 2,661 6.0 -8.8°
Sets 20:47:35 0° 44° (NE) 3,706 6.7 -9.1°
